Regional Weather Roundup
Issued by NWS Bismarck, ND

Current Version | Previous Version | Text Only | Print | Product List | Glossary On
Versions: 1 2 3 4 5 6 7 8 9 10 11 12 13 14 15 16 17 18 19 20 21 22 23 24 25 26 27 28 29 30 31 32 33 34 35 36 37 38 39 40 41 42 43 44 45 46 47 48 49 50
000
ASUS43 KBIS 221010
RWRBIS

NWR BROADCAST TEXT
NATIONAL WEATHER SERVICE BISMARCK ND
400 AM CST FRI FEB 22 2019

NOTE: "FAIR" INDICATES FEW OR NO CLOUDS BELOW 12,000 FEET WITH NO
SIGNIFICANT WEATHER AND/OR OBSTRUCTIONS TO VISIBILITY.


CITY           SKY/WX    TMP DP  RH WIND       PRES   REMARKS
WILLISTON      PTCLDY   -14 -19  79 S3        30.19F
MINOT          CLOUDY    -5  -9  83 SW3       30.19F
MINOT AFB      NOT AVBL
BISMARCK       MOCLDY   -11 -14  86 CALM      30.27S
DICKINSON      PTCLDY    -8 -13  78 SW5       30.13S WCI -19
GARRISON         N/A     -8 -12  83 CALM      30.20F
HETTINGER ARPT PTCLDY    -7 -12  79 CALM      30.16F
JAMESTOWN      CLOUDY    -3  -7  82 W6        30.25F WCI -15
CARRINGTON     FAIR      -8 -11  84 W10       30.26F WCI -26
HAZEN          FAIR     -13 -17  84 CALM      30.26S
LINTON           N/A     -9 -15  77 CALM      30.27F
MANDAN         FAIR      -6  -8  92 W6        30.24S WCI -18
OAKES          CLOUDY   -11 -17  77 S6        30.31S WCI -25
RUGBY          FAIR     -13 -17  84 SW5       30.21F WCI -25
STANLEY        FAIR     -13 -17  84 W6        30.14F WCI -27
TIOGA          FAIR     -15 -18  84 CALM      30.15F
WATFORD CITY   FAIR     -15 -18  84 CALM      30.18S
$$

CITY           SKY/WX    TMP DP  RH WIND       PRES   REMARKS
GRAND FORKS    PTCLDY    -8 -11  86 SW5       30.29F WCI -19
GRAND FORKS AF PTCLDY    -7 -12  78 SW5       30.28F WCI -18
DEVILS LAKE    MOCLDY   -14 -18  82 CALM      30.25S
FARGO          PTCLDY     1  -1  91 SW6       30.33R FOG     WCI -10
CANDO          FAIR     -15 -18  84 SW6       30.24S WCI -29
CAVALIER       FAIR      -9 -13  84 S5        30.26F FOG     WCI -21
GRAFTON        FAIR      -9 -13  84 SW7       30.30F HAZE    WCI -24
GWINNER          N/A     -8 -11  84 SW8       30.31S WCI -23
LANGDON        FOG       -9  -9 100 S9        30.20S VSB 3/4 WCI -27
ROLLA          CLOUDY     3   1  92 CALM      30.17S
WALHALLA         N/A     -2  -2 100 CALM      30.25F
$$

CITY           SKY/WX    TMP DP  RH WIND       PRES   REMARKS
ABERDEEN       CLOUDY    -5  -8  87 SE3       30.32F
MOBRIDGE       CLOUDY     4  -1  80 CALM      30.21F
BUFFALO          N/A      2  -2  83 CALM      30.08F
RAPID CITY     FLURRIES  11   6  81 SE6       30.11S WCI   1
GLASGOW        PTCLDY    -9 -16  71 SE14      30.09F WCI -30
SIDNEY         PTCLDY   -18 -23  77 CALM      30.19F
WOLF POINT     MOCLDY   -21 -26  77 CALM      30.16F
GLENDIVE       MOCLDY   -13 -17  82 S7        30.15F WCI -29
MILES CITY     MOCLDY    -9 -13  83 S8        30.11F WCI -25
BAKER          PTCLDY   -12 -16  82 E3        30.10F
$$

CITY           SKY/WX    TMP DP  RH WIND       PRES   REMARKS
BILLINGS       FLURRIES   2  -2  83 W8        30.02S WCI -12
GREAT FALLS    PTCLDY     8   1  73 SW20      29.87F WCI -11
REGINA         CLEAR    -17 -24  70 E8        30.11F WCI -34
ESTEVAN        CLEAR    -17 -20  83 SW8       30.15F WCI -34
$$




USA.gov is the U.S. government's official web portal to all federal, state and local government web resources and services.